TimeCST,TemperatureF,Dew PointF,Humidity,Sea Level PressureIn,VisibilityMPH,Wind Direction,Wind SpeedMPH,Gust SpeedMPH,PrecipitationIn,Events,Conditions,WindDirDegrees,DateUTC
6:00 AM,,65,,29.82,12,ENE,2.3,,,,,60,2012-12-20 12:00:00
6:00 AM,68.0,64.4,88,29.80,-9999.0,ENE,2.3,-,N/A,,Clear,60,2012-12-20 12:00:00
7:00 AM,71.6,66.2,83,29.81,-9999.0,WSW,1.2,-,N/A,,Clear,240,2012-12-20 13:00:00
8:00 AM,78.8,68.0,69,29.84,-9999.0,South,2.3,-,N/A,,Clear,180,2012-12-20 14:00:00
9:00 AM,,82,,,12,South,4.6,,,,,190,2012-12-20 15:00:00
9:00 AM,82.4,68.0,62,29.84,-9999.0,South,4.6,-,N/A,,Clear,190,2012-12-20 15:00:00
10:00 AM,87.8,66.2,49,29.84,6.2,WSW,5.8,-,N/A,,Partly Cloudy,250,2012-12-20 16:00:00
11:00 AM,89.6,66.2,46,29.83,6.2,ENE,6.9,-,N/A,,Mostly Cloudy,70,2012-12-20 17:00:00
12:00 PM,88,67,40,29.82,12,West,5.8,,,,Partly Cloudy,270,2012-12-20 18:00:00
12:00 PM,87.8,68.0,52,29.81,6.2,West,5.8,-,N/A,,Scattered Clouds,270,2012-12-20 18:00:00
1:00 PM,91.4,66.2,43,29.78,6.2,East,15.0,-,N/A,,Partly Cloudy,100,2012-12-20 19:00:00
2:00 PM,91.4,66.2,43,29.76,6.2,East,13.8,-,N/A,,Scattered Clouds,80,2012-12-20 20:00:00
3:00 PM,89,67,39,29.76,12,ENE,15.0,,,,Scattered Clouds,60,2012-12-20 21:00:00
3:00 PM,89.6,68.0,49,29.75,6.2,ENE,15.0,-,N/A,,Scattered Clouds,60,2012-12-20 21:00:00
4:00 PM,86.0,68.0,55,29.76,6.2,ENE,17.3,-,N/A,,Scattered Clouds,60,2012-12-20 22:00:00
5:00 PM,84.2,66.2,55,29.78,6.2,NE,16.1,-,N/A,,Mostly Cloudy,50,2012-12-20 23:00:00
6:00 PM,81,67,54,29.79,12,ENE,11.5,,,,Overcast,60,2012-12-21 00:00:00
6:00 PM,80.6,68.0,65,29.79,6.2,ENE,11.5,-,N/A,,Mostly Cloudy,60,2012-12-21 00:00:00
7:00 PM,78.8,66.2,65,29.80,6.2,East,10.4,-,N/A,,Scattered Clouds,100,2012-12-21 01:00:00
8:00 PM,78.8,66.2,65,29.83,6.2,East,9.2,-,N/A,,Scattered Clouds,80,2012-12-21 02:00:00